[Iaude] MPEC A95: 2024 AD2 [a=2.51,e=0.60,i=0.8,H=26.2]
    mpec at marsden.cfa.harvard.edu 
    mpec at marsden.cfa.harvard.edu
       
    Tue Jan  9 10:51:55 EST 2024
    
    
  
M.P.E.C. 2024-A95                               Issued 2024 January 9, 15:50 UT
     The Minor Planet Electronic Circulars contain information on unusual
         minor planets, routine data on comets and natural satellites,
         and occasional editorial announcements.  They are published
    on behalf of Division F of the International Astronomical Union by the
          Minor Planet Center, Smithsonian Astrophysical Observatory,
                          Cambridge, MA 02138, U.S.A.
			  
             Prepared using the Tamkin Foundation Computer Network
                              MPC at CFA.HARVARD.EDU
            URL https://www.minorplanetcenter.net/    ISSN 1523-6714
                                    2024 AD2                                    
Observations:
     K24A02D 1C2023 12 31.29151 04 23 32.93 +39 37 35.9          21.0 GVEA095G96
     K24A02D 1C2023 12 31.30208 04 23 41.73 +39 38 38.9          20.3 GVEA095G96
     K24A02D*KC2024 01 05.85217 06 52 03.38 +48 06 25.2          19.4 GXEA095L51
     K24A02D KC2024 01 05.85333 06 52 05.97 +48 06 27.7          19.1 GXEA095L51
     K24A02D KC2024 01 05.85445 06 52 08.57 +48 06 29.9          19.4 GXEA095L51
     K24A02D KC2024 01 05.88361 06 53 15.37 +48 07 13.8          20.2 GXEA095L51
     K24A02D KC2024 01 05.88527 06 53 19.18 +48 07 16.2          19.5 GXEA095L51
     K24A02D KC2024 01 05.88682 06 53 22.66 +48 07 18.4          19.8 GXEA095L51
     K24A02D 0C2024 01 05.89709306 54 03.563+48 07 38.64         20.7 GVEA095Z24
     K24A02D 0C2024 01 05.89891506 54 07.824+48 07 42.61         20.4 GVEA095Z24
     K24A02D 0C2024 01 05.90074606 54 12.064+48 07 46.54         19.9 GVEA095Z24
     K24A02D KB2024 01 05.90364006 54 11.60 +48 07 18.5          19.8 GXEA095I93
     K24A02D KB2024 01 05.90838806 54 22.62 +48 07 26.6          20.3 GXEA095I93
     K24A02D KB2024 01 05.91312706 54 33.55 +48 07 34.7          19.8 GXEA095I93
     K24A02D KB2024 01 06.94406307 37 31.76 +47 58 55.6          19.8 GXEA095958
     K24A02D KB2024 01 06.94951607 37 45.34 +47 58 44.8          19.7 GXEA095958
     K24A02D KB2024 01 06.95492707 37 58.57 +47 58 32.8                XEA095958
Observer details:
958 Observatoire de Dax.  Observer P. Dupouy.  0.50-m f/4.5 Reflector + CMO.
G96 Mt. Lemmon Survey.  Observer R. A. Kowalski.  Measurers B. Gray, D.
    Rankin, F. C. Shelly.  1.5-m reflector + 10K CCD.
I93 St Pardon de Conques.  Observer F. Losse.  0.40-m f/3.7 reflector + CMO.
L51 MARGO, Nauchnyi.  Observer G. Borisov.  0.50-m f/1.9 reflector + CCD.
Z24 Tenerife Observatory-LCO B, Tenerife.  Observers M. Micheli, T. Santana-
    Ros, F. Ocana, L. Conversi.  Measurer M. Micheli.  1.0-m reflector +
    CCD.
Orbital elements:
2024 AD2                                                 Earth MOID = 0.0289 AU
Epoch 2023 Sept. 13.0 TT = JDT 2460200.5                Veres                   
M 329.87411              (2000.0)            P               Q                  
n   0.24724148     Peri.   98.44317     -0.39169233     -0.92008920             
a   2.5141344      Node    14.61825     +0.83845644     -0.35854712             
e   0.5982349      Incl.    0.81782     +0.37890358     -0.15773338             
P   3.99           H   26.27          G   0.15           U   9                  
Residuals in seconds of arc
231231 G96  0.4+  0.2+    240105 L51  0.7+  0.0     240105 I93  0.2+  0.1-
231231 G96  0.4-  0.2-    240105 L51  0.0   0.0     240105 I93  0.2-  0.1+
240105 L51  1.1+  0.1+    240105 Z24  0.3-  0.1-    240106 958  1.0-  0.1-
240105 L51  0.4+  0.6+    240105 Z24  0.0   0.0     240106 958  0.7+  0.3-
240105 L51  0.7+  1.0+    240105 Z24  0.1-  0.1+    240106 958  0.0   1.5-
240105 L51  0.7+  0.1-    240105 I93  0.1-  0.1-
Ephemeris:
2024 AD2                 a,e,i = 2.51, 0.60, 1                   q = 1.0101
Date    TT    R. A. (2000) Decl.     Delta      r    Elong.  Phase     V
2023 12 10    02 54 42.0 +22 45 48   0.1336  1.1027   150.1    26.5    23.3
...
2023 12 25    03 25 59.3 +31 00 39   0.07015 1.0402   142.7    35.0    22.0
...
2024 01 02    04 54 25.5 +42 43 06   0.04256 1.0202   149.5    29.3    20.7
...
2024 01 08    08 22 24.5 +46 42 19   0.03243 1.0121   151.9    27.2    20.1
2024 01 09    09 02 59.7 +44 28 25   0.03245 1.0113   149.0    30.1    20.2
2024 01 10    09 39 19.2 +41 28 08   0.03303 1.0108   145.3    33.6    20.3
...
2024 01 16    11 42 32.0 +21 38 29   0.04543 1.0109   125.7    52.2    21.5
...
2024 01 24    12 33 13.0 +08 02 13   0.07269 1.0206   118.2    58.2    22.7
...
2024 02 08    12 55 02.5 -00 17 44   0.1294  1.0666   125.4    48.9    23.8
M. P. C. Staff               (C) Copyright 2024 MPC           M.P.E.C. 2024-A95
    
    
More information about the Iaude
mailing list